Toronto Pearson, Ontario

4:46 PM EST on December 15, 2019 (GMT -0500)
Toronto-Pearson International

Weather History for CYYZ - May, 2019

Change the Weather History Date:

Thursday, May 23, 2019

  Actual Average Record
Temperature  
Mean Temperature 62 °F -  
Max Temperature 79 °F 72 °F 78 °F (2018)
Min Temperature 46 °F 50 °F 34 °F (2015)
Degree Days  
Heating Degree Days 2    
Growing Degree Days 12 (Base 50)    
Moisture  
Dew Point 47 °F    
Average Humidity 70    
Maximum Humidity 94    
Minimum Humidity 29    
Precipitation  
Precipitation 0.03 in 0.09 in - ()
Sea Level Pressure  
Sea Level Pressure 29.92 in    
Wind  
Wind Speed 10 mph ()    
Max Wind Speed 32 mph    
Max Gust Speed 48 mph    
Visibility 12.8 miles    
Events Rain    
Averages and records for this station are not official NWS values.
T = Trace of Precipitation, MM = Missing Value Source: Averaged Metar Reports

Daily Weather History Graph

Daily Weather History Graph

Search for Another Location

Airport or City:

Astronomy

May. 23, 2019 Rise Set
Actual Time 5:46 AM EDT 8:45 PM EDT
Civil Twilight 5:11 AM EDT 9:19 PM EDT
Nautical Twilight 4:28 AM EDT 10:02 PM EDT
Astronomical Twilight 3:37 AM EDT 10:54 PM EDT
Moon 12:27 AM EDT (5/23) 9:47 AM EDT (5/23)
Length of Visible Light 16h 07m
Length of Day
14h 59m
Waning Gibbous, 77% of the Moon is Illuminated
May 23
Waning Gibbous
May 26
Last Quarter
Jun 3
New
Jun 10
First Quarter
Jun 17
Full

Hourly Weather History & Observations

Time (EDT) Temp. Dew Point Humidity Pressure Visibility Wind Dir Wind Speed Gust Speed Precip Events Conditions
12:00 AM 51.8 °F 39.2 °F 62% 30.06 in 15.0 mi East 10.4 mph - N/A   Clear
1:00 AM 50.0 °F 39.2 °F 66% 30.02 in 15.0 mi East 9.2 mph - N/A   Clear
2:00 AM 49 °F 39 °F 58% 30.01 in 15 mi East 10.4 mph - -   Scattered Clouds
2:00 AM 48.2 °F 39.2 °F 71% 30.01 in 15.0 mi East 10.4 mph - N/A   Partly Cloudy
3:00 AM 48.2 °F 41.0 °F 76% 30.01 in 15.0 mi Variable 2.3 mph - N/A   Partly Cloudy
4:00 AM 48.2 °F 39.2 °F 71% 29.99 in 15.0 mi East 6.9 mph - N/A   Scattered Clouds
5:00 AM 48 °F 41 °F 68% 30.00 in 15 mi SSE 2.3 mph - -  
5:00 AM 48.2 °F 41.0 °F 76% 29.99 in 15.0 mi SSE 6.9 mph - N/A   Mostly Cloudy
6:00 AM 50.0 °F 41.0 °F 71% 29.98 in 15.0 mi East 8.1 mph - N/A   Mostly Cloudy
6:35 AM 51.8 °F 42.8 °F 71% 29.97 in 15.0 mi SE 4.6 mph - N/A   Mostly Cloudy
6:49 AM 50.0 °F 42.8 °F 76% 29.97 in 15.0 mi SE 3.5 mph - N/A   Overcast
7:00 AM 51.8 °F 44.6 °F 76% 29.99 in 15.0 mi ENE 9.2 mph - N/A   Overcast
8:00 AM 53 °F 46 °F 68% 29.96 in 15 mi SE 4.6 mph - -   Overcast
8:00 AM 53.6 °F 46.4 °F 77% 29.96 in 15.0 mi SE 4.6 mph - N/A   Overcast
8:42 AM 51.8 °F 46.4 °F 82% 29.96 in 10.0 mi SE 8.1 mph - N/A   Overcast
9:00 AM 51.8 °F 46.4 °F 82% 29.96 in 9.0 mi SSE 8.1 mph - N/A   Overcast
9:13 AM 51.8 °F 46.4 °F 82% 29.95 in 10.0 mi SE 8.1 mph 17.3 mph N/A   Overcast
9:51 AM 51.8 °F 46.4 °F 82% 29.97 in 10.0 mi South 17.3 mph 24.2 mph N/A Rain Light Rain Showers
10:00 AM 51.8 °F 48.2 °F 88% 29.97 in 8.0 mi South 11.5 mph 18.4 mph N/A Rain Light Rain Showers
10:23 AM 51.8 °F 48.2 °F 88% 29.94 in 8.0 mi SE 4.6 mph - N/A Rain Light Rain
11:00 AM 52 °F 50 °F 90% 29.88 in 7 mi ESE 9.2 mph - -   Overcast
11:00 AM 51.8 °F 50.0 °F 94% 29.88 in 8.0 mi ESE 11.5 mph - N/A   Overcast
11:34 AM 51.8 °F 48.2 °F 88% 29.92 in 10.0 mi South 13.8 mph - N/A   Overcast
12:00 PM 51.8 °F 48.2 °F 88% 29.89 in 9.0 mi SE 10.4 mph 19.6 mph N/A   Overcast
1:00 PM 57.2 °F 51.8 °F 82% 29.86 in 8.0 mi SSE 12.7 mph - N/A   Overcast
1:14 PM 59.0 °F 53.6 °F 82% 29.86 in 8.0 mi SSE 12.7 mph 18.4 mph N/A   Overcast
2:00 PM 62 °F 58 °F 83% 29.82 in 10 mi SSE 9.2 mph - -   Partly Cloudy
2:00 PM 62.6 °F 59.0 °F 88% 29.82 in 10.0 mi SSE 11.5 mph 19.6 mph N/A   Partly Cloudy
3:00 PM 69.8 °F 60.8 °F 73% 29.78 in 15.0 mi SSE 12.7 mph 23.0 mph N/A   Mostly Cloudy
3:33 PM 77.0 °F 55.4 °F 47% 29.76 in 15.0 mi WSW 24.2 mph 40.3 mph N/A   Mostly Cloudy
4:00 PM 78.8 °F 55.4 °F 44% 29.77 in 15.0 mi WSW 26.5 mph 48.3 mph N/A   Mostly Cloudy
5:00 PM 76 °F 52 °F 32% 29.78 in 15 mi West 32.2 mph - -  
5:00 PM 77.0 °F 51.8 °F 41% 29.78 in 15.0 mi West 26.5 mph 48.3 mph N/A   Partly Cloudy
6:00 PM 75.2 °F 50.0 °F 41% 29.80 in 15.0 mi West 26.5 mph 40.3 mph N/A   Partly Cloudy
8:00 PM 71 °F 45 °F 29% 29.83 in 15 mi WNW 23.0 mph - -   Partly Cloudy
8:00 PM 71.6 °F 44.6 °F 38% 29.83 in 15.0 mi WNW 23.0 mph 32.2 mph N/A   Scattered Clouds
10:00 PM 60.8 °F 46.4 °F 59% 29.92 in 15.0 mi WNW 11.5 mph 18.4 mph N/A   Scattered Clouds
11:00 PM 59 °F 47 °F 54% 29.93 in 15 mi NW 15.0 mph - -